Orbital Elements at Epoch 2459000.5 (2020-May-31.0) TDB
Reference: JPL 15 (heliocentric ecliptic J2000)
Element | Value | Uncertainty (1-sigma) | Units |
e | .09903013443894057 | 5.1196e-08 | |
a | 2.295739479737107 | 1.0165e-08 | au |
q | 2.068392090421958 | 1.1818e-07 | au |
i | 5.61549681253186 | 6.0431e-06 | deg |
node | 350.51288404 | 4.6858e-05 | deg |
peri | 163.7533188554277 | 5.8361e-05 | deg |
M | .03659518211295015 | 3.2351e-05 | deg |
tp | 2459000.370847224660 (2020-May-30.87084722) | 0.00011417 | TDB |
period | 1270.522414091148 3.48 | 8.4385e-06 2.31e-08 | d yr |
n | .2833480118156919 | 1.8819e-09 | deg/d |
Q | 2.523086869052257 | 1.1172e-08 | au |
|
| | Orbit Determination Parameters
Additional Information
|